Back to catalog

STARLINK-37282

AliveCommunicationsVLEO
NORAD 69190·PAYLOAD·🇺🇸 United States

Launched May 25, 2026 from Cape Canaveral Space Force Station

Loading…

Next Passes (next 24 hours)

TLE

FreshSource: CelesTrak SupGP

Epoch: Sep 14, 2026, 22:36 UTC

1 69190C 26114J   26257.94215278 -.00055944  00000+0 -16529-2 0  2579
2 69190  53.1561 139.8364 0001222  79.3005 188.4242 15.34417227    19

Track STARLINK-37282 in real time with AllMySat

Download on the App Store